Regional Weather Roundup
Issued by NWS Memphis, TN

Home | Current Version | Previous Version | Text Only | Print | Product List | Glossary On
Versions: 1 2 3 4 5 6 7 8 9 10 11 12 13 14 15 16 17 18 19 20 21 22 23 24 25 26 27 28 29 30 31 32 33 34 35 36 37 38 39 40 41 42 43 44 45 46 47 48 49 50
000
ASUS44 KMEG 220510
RWRMEG
MEMPHIS CWA HOURLY WEATHER ROUNDUP
NATIONAL WEATHER SERVICE MEMPHIS TN
1200 AM CDT TUE AUG 22 2017

...WEST TENNESSEE...

CITY           SKY/WX    TMP DP  RH WIND       PRES   REMARKS
MEMPHIS INTL   PTCLDY    82  75  79 S10       30.08F
NWS MEMPHIS      N/A     80 N/A N/A MISG        N/A
JACKSON        CLEAR     78  75  90 S3        30.08F
COVINGTON      CLEAR     79  75  89 SW7       30.06F
SOMERVILLE     CLEAR     79  75  89 S5        30.08F
BOLIVAR        CLEAR     79  77  94 CALM      30.08F
LEXINGTON      CLEAR     77  73  88 CALM      30.08F
SELMER         CLEAR     77  75  94 S3        30.09F
SAVANNAH       MOCLDY    75  73  94 SE3       30.09F
DYERSBURG      CLEAR     80  76  87 CALM      30.07F
UNION CITY     CLEAR     77  73  88 S3        30.05F
PARIS          CLEAR     75  73  94 CALM      30.06F
HUNTINGDON     CLEAR     75  73  94 CALM      30.07F


...EASTERN ARKANSAS...

CITY           SKY/WX    TMP DP  RH WIND       PRES   REMARKS
JONESBORO      CLEAR     79  76  90 S6        30.05F
WEST MEMPHIS   CLEAR     78  76  93 S6        30.06F
NEWPORT        CLEAR     77  75  93 S7        30.06F
WALNUT RIDGE   CLEAR     79  73  83 S7        30.05S
BLYTHEVILLE    CLEAR     80  76  87 S5        30.06F
SEARCY         CLEAR     76  76 100 CALM      30.08F FOG
PINE BLUFF     CLEAR     78  75  90 S5        30.07F
MONTICELLO     CLEAR     78  74  87 CALM      30.09S


...NORTH MISSISSIPPI...

CITY           SKY/WX    TMP DP  RH WIND       PRES   REMARKS
TUPELO         CLEAR     78  74  87 CALM      30.10F
OXFORD         CLEAR     75  72  88 SE5       30.12F
BATESVILLE     PTCLDY    75  73  95 CALM      30.10F FOG
TUNICA           N/A     75  73  94 CALM      30.09S
CLARKSDALE       N/A     79  79 100 CALM      30.09S
GREENWOOD      PTCLDY    76  75  97 CALM      30.09F
COLUMBUS       CLEAR     75  75 100 CALM      30.11S
STARKVILLE     CLEAR     73  72  94 CALM      30.12F FOG
GOLDEN TRIANGL CLEAR     75  68  78 CALM        N/A


...SOUTHEAST MISSOURI...

CITY           SKY/WX    TMP DP  RH WIND       PRES   REMARKS
KENNETT        CLEAR     81  77  89 SW6       30.03F
MALDEN         CLEAR     79  75  89 S5        30.05F
WEST PLAINS    CLEAR     78  72  81 S6        30.10R
POPLAR BLUFF   CLEAR     78  76  93 SW5       30.04S
CAPE GIRARDEAU CLEAR     75  72  90 NW3       30.03F


...NORTHWEST ALABAMA...

CITY           SKY/WX    TMP DP  RH WIND       PRES   REMARKS
MUSCLE SHOALS  CLEAR     75  71  87 CALM      30.13F


...MIDDLE TENNESSEE...

CITY           SKY/WX    TMP DP  RH WIND       PRES   REMARKS
NASHVILLE      CLEAR     76  70  82 S3        30.11F
CLARKSVILLE    CLEAR     75  72  90 S3        30.08F
COLUMBIA       CLEAR     73  73 100 CALM      30.09F


...WESTERN KENTUCKY...

CITY           SKY/WX    TMP DP  RH WIND       PRES   REMARKS
PADUCAH        CLEAR     80  72  76 VRB5      30.03F
FORT CAMPBELL  CLEAR     80  72  76 S7        30.07F


...CENTRAL ARKANSAS...

CITY           SKY/WX    TMP DP  RH WIND       PRES   REMARKS
LITTLE ROCK    CLEAR     79  77  94 S7        30.07F


SKY/WX REPORTED AS FAIR MEANS FEW OR NO CLOUDS BELOW
12 THOUSAND FEET.




USA.gov is the U.S. government's official web portal to all federal, state and local government web resources and services.